This demonstration page uses our WeatherBlox Daily Observations layout. Learn more.

Hourly Observations for January 27, 2020

Temp ( °F °C ) Dew Point ( °F °C ) Humidity (%) Winds ( mph kmh ) Pressure ( in mb ) Visibility ( mi km ) Precip ( " mm )
12:15 am 00:15 Clear 29 -1.9 28 -2.1 99 99 W 7 11 30.09 1019 10 16.0934 0 0
12:35 am 00:35 Clear 29 -1.4 29 -1.6 99 99 WNW 6 9 30.08 1019 10 16.0934 0 0
12:55 am 00:55 Clear 33 0.6 31 -0.3 94 94 NNW 10 17 30.07 1018 10 16.0934 0 0
1:15 am 01:15 Clear 32 0.1 30 -1 92 92 N 8 13 30.07 1018 10 16.0934 0 0
1:35 am 01:35 Clear 32 0 30 -1.1 92 92 N 9 15 30.08 1019 10 16.0934 0 0
1:55 am 01:55 Clear 31 -0.3 30 -1.3 93 93 N 9 15 30.09 1019 10 16.0934 0 0
2:15 am 02:15 Clear 31 -0.5 29 -1.4 94 94 NNW 7 11 30.09 1019 10 16.0934 0 0
2:35 am 02:35 Clear 31 -0.7 29 -1.5 94 94 N 7 11 30.1 1019 10 16.0934 0 0
2:55 am 02:55 Clear 30 -1.2 28 -2 94 94 N 6 9 30.11 1020 10 16.0934 0 0
3:15 am 03:15 Clear 30 -1.3 29 -1.7 97 97 N 6 9 30.11 1020 10 16.0934 0 0
3:35 am 03:35 Clear 29 -1.6 28 -2.2 96 96 WNW 3 6 30.12 1020 10 16.0934 0 0
3:55 am 03:55 Clear 29 -1.7 28 -2.1 97 97 NNW 8 13 30.11 1020 10 16.0934 0 0
4:15 am 04:15 Clear 29 -1.5 28 -2 96 96 NNW 6 9 30.11 1020 10 16.0934 0 0
4:35 am 04:35 Clear 29 -1.5 28 -2 96 96 N 9 15 30.12 1020 10 16.0934 0 0
4:55 am 04:55 Mostly Cloudy 30 -1.3 29 -1.8 96 96 N 7 11 30.12 1020 10 16.0934 0 0
5:15 am 05:15 Cloudy 31 -0.7 30 -1.2 96 96 N 16 26 30.12 1020 10 16.0934 0 0
5:35 am 05:35 Cloudy 31 -0.6 30 -1.2 96 96 N 14 22 30.12 1020 10 16.0934 0 0
5:55 am 05:55 Cloudy 31 -0.6 29 -1.4 94 94 N 13 20 30.12 1020 10 16.0934 0 0
6:15 am 06:15 Cloudy 31 -0.5 29 -1.5 93 93 N 10 17 30.12 1020 10 16.0934 0 0
6:35 am 06:35 Cloudy 31 -0.5 30 -1.3 94 94 N 12 19 30.12 1020 10 16.0934 0 0
6:55 am 06:55 Cloudy 31 -0.3 30 -1.3 93 93 N 9 15 30.12 1020 10 16.0934 0 0
7:15 am 07:15 Cloudy 31 -0.4 30 -1.3 94 94 N 13 20 30.12 1020 10 16.0934 0 0
7:35 am 07:35 Cloudy 31 -0.3 30 -1.3 93 93 N 14 22 30.12 1020 10 16.0934 0 0
7:55 am 07:55 Cloudy 32 -0.2 30 -1.2 93 93 N 16 26 30.13 1020 10 16.0934 0 0
8:15 am 08:15 Cloudy 32 -0.1 30 -1.1 93 93 N 14 22 30.14 1021 10 16.0934 0 0
8:35 am 08:35 Cloudy 32 0 30 -1 93 93 NNE 18 30 30.14 1020 10 16.0934 0 0
8:55 am 08:55 Cloudy 32 0 30 -1.1 92 92 NNE 15 24 30.14 1020 10 16.0934 0 0
9:15 am 09:15 Cloudy 32 0 30 -1 93 93 N 15 24 30.15 1021 10 16.0934 0 0
9:55 am 09:55 Cloudy 32 0.2 30 -1 92 92 NE 13 20 30.15 1021 10 16.0934 0 0
10:15 am 10:15 Cloudy 32 0.2 30 -1.1 91 91 NNE 10 17 30.16 1021 10 16.0934 0 0
10:35 am 10:35 Cloudy 33 0.5 30 -0.9 90 90 NNE 12 19 30.16 1021 10 16.0934 0 0
10:55 am 10:55 Cloudy 33 0.5 31 -0.8 91 91 NNE 9 15 30.16 1021 10 16.0934 0 0
11:15 am 11:15 Cloudy 33 0.6 31 -0.7 91 91 NNE 12 19 30.16 1021 10 16.0934 0 0
11:35 am 11:35 Cloudy 33 0.6 31 -0.7 91 91 NNE 7 11 30.17 1022 10 16.0934 0 0
11:55 am 11:55 Cloudy 33 0.5 31 -0.8 91 91 NNE 6 9 30.17 1022 10 16.0934 0 0
12:15 pm 12:15 Cloudy 33 0.6 31 -0.6 92 92 NNE 7 11 30.16 1021 10 16.0934 0 0
12:35 pm 12:35 Cloudy 33 0.8 31 -0.6 90 90 NE 5 7 30.15 1021 10 16.0934 0 0
12:55 pm 12:55 Cloudy 34 1 31 -0.3 91 91 NE 7 11 30.14 1021 10 16.0934 0 0
1:15 pm 13:15 Cloudy 33 0.7 31 -0.6 91 91 NE 7 11 30.14 1021 10 16.0934 0 0
1:35 pm 13:35 Cloudy 33 0.6 31 -0.6 92 92 ENE 5 7 30.13 1020 10 16.0934 0 0
1:55 pm 13:55 Cloudy 33 0.6 31 -0.7 91 91 NE 6 9 30.12 1020 10 16.0934 0 0
2:15 pm 14:15 Cloudy 33 0.5 31 -0.7 92 92 ENE 5 7 30.11 1020 10 16.0934 0 0
2:35 pm 14:35 Cloudy 32 0.2 30 -0.9 92 92 ENE 7 11 30.11 1020 10 16.0934 0 0
2:55 pm 14:55 undefined N/A N/A N/A undefined N/A N/A N/A 0 0
3:15 pm 15:15 undefined N/A N/A N/A undefined N/A N/A N/A 0 0
3:35 pm 15:35 Cloudy 33 0.5 29 -1.4 87 87 N 3 6 30.13 1020 N/A 0.03 0.762
3:55 pm 15:55 Cloudy 33 0.6 30 -1.2 88 88 NE 5 7 30.13 1020 10 16.0934 0.03 0.762
4:15 pm 16:15 Cloudy 33 0.4 30 -1.3 89 89 NNE 6 9 30.13 1020 10 16.0934 0 0
4:35 pm 16:35 Cloudy 33 0.3 29 -1.5 88 88 NE 8 13 30.13 1020 10 16.0934 0 0
4:55 pm 16:55 Cloudy 32 0 29 -1.6 89 89 NE 5 7 30.14 1020 10 16.0934 0 0
5:15 pm 17:15 Cloudy 32 0 29 -1.6 89 89 ENE 10 17 30.12 1020 10 16.0934 0 0
5:35 pm 17:35 Cloudy 32 0 29 -1.5 90 90 NE 9 15 30.14 1020 10 16.0934 0 0
5:55 pm 17:55 Cloudy 32 0 29 -1.5 90 90 ENE 8 13 30.14 1020 10 16.0934 0 0
6:15 pm 18:15 Cloudy 32 0 29 -1.6 89 89 NE 7 11 30.14 1020 10 16.0934 0 0
6:35 pm 18:35 Cloudy 32 0 29 -1.5 90 90 NE 7 11 30.15 1021 10 16.0934 0 0
7:15 pm 19:15 Cloudy 32 -0.2 29 -1.6 90 90 NE 7 11 30.16 1021 10 16.0934 0 0
7:35 pm 19:35 Cloudy 32 -0.2 29 -1.6 90 90 ENE 5 7 30.17 1022 10 16.0934 0 0
7:55 pm 19:55 Cloudy 31 -0.3 29 -1.7 90 90 ENE 6 9 30.17 1022 10 16.0934 0 0
8:15 pm 20:15 Cloudy 31 -0.5 28 -2 90 90 E 5 7 30.18 1022 10 16.0934 0 0
8:35 pm 20:35 Cloudy 31 -0.4 29 -1.9 90 90 NNE 3 6 30.18 1022 10 16.0934 0 0
8:55 pm 20:55 Cloudy 31 -0.4 29 -1.7 91 91 ENE 3 6 30.19 1022 10 16.0934 0 0
9:15 pm 21:15 Cloudy 31 -0.3 29 -1.7 90 90 Calm 30.19 1022 10 16.0934 0 0
9:35 pm 21:35 Cloudy 31 -0.3 29 -1.7 90 90 Calm 30.19 1022 10 16.0934 0 0
9:55 pm 21:55 Cloudy 31 -0.5 29 -1.6 92 92 ENE 5 7 30.19 1022 10 16.0934 0 0
10:15 pm 22:15 Cloudy 31 -0.5 29 -1.7 92 92 E 5 7 30.19 1022 10 16.0934 0 0
10:35 pm 22:35 Cloudy 31 -0.6 29 -1.8 92 92 ENE 5 7 30.19 1022 10 16.0934 0 0
10:55 pm 22:55 Cloudy 31 -0.6 29 -1.8 92 92 E 3 6 30.19 1022 10 16.0934 0 0
11:15 pm 23:15 Cloudy 31 -0.7 28 -2 91 91 Calm 30.19 1022 10 16.0934 0 0
11:35 pm 23:35 Cloudy 31 -0.8 28 -2 92 92 Calm 30.19 1022 10 16.0934 0 0
11:55 pm 23:55 Cloudy 31 -0.8 28 -2 92 92 Calm 30.19 1022 10 16.0934 0 0

Powered by AerisWeather